map of RBA home
Great Circle Mapper logo
RBA - Airport
Location
City:  Rabat, Morocco
Name:Rabat-Salé
ICAO:GMME
IATA:RBA

Details
Type:Airport (Aerodrome, Airfield)
Use:Public/Civil, Military, International (customs port of entry)
Latitude:34°03'05"N (34.051467)
Longitude:6°45'05"W (-6.751518)
Datum:WGS 1984
Elevation:276 ft (84 m)
Variation:1.72°W (WMM2015 magnetic declination)
0.11° annual change
Runways:1
Longest:11483 × 148 ft (3500 × 45 m), paved

Time
Time Zone:UTC+0 (DST+1)
Local Time:

Weather
METAR:GMME 010630Z VRB02KT 6000 NSC 15/14 Q1014 NOSIG
TAF:GMME 010500Z 0106/0212 32012KT 9999 SCT020 SCT200
BECMG 0112/0116 28010KT
TEMPO 0118/0124 22006KT 6000 SCT015

Related Locations
Nearby:
Farthest:KAT: 12360 mi / 19891 km
Kaitaia, NZ

Find:

   beyond  
but within

Other Information
Maps:
NOTAMs:
Links:
Sources:

  
flag of Morocco   

Sectional Chart

Flight Planning
at skyvector.com

Satellite Image

Google Maps Satellite view

 

Copyright © 2004-2016 Karl L. Swartz. All rights reserved.
The Great Circle Mapper name and logo are trademarks of the Great Circle Mapper.
All other trademarks mentioned herein belong to their respective owners.
Please see credits for attibutions and further copyright information.

  Follow gcmap on Facebook Follow gcmap on Twitter Follow gcmap on Google+ GCmap on LinkedIn

hCard Microformat

Geo Microformat